owner,sensor,date,latitude,longitude,vertical_datum,mass_concentration_of_oxygen_in_sea_water,qcFlag 
SCCF RECON,ioos:station:SCCF:56:1,2014-01-01T00:00:00Z,26.4645,-82.1044,1.345,7.49,1111122 
SCCF RECON,ioos:station:SCCF:56:1,2014-01-01T01:00:00Z,26.4645,-82.1044,1.482,7.6,1111122 
SCCF RECON,ioos:station:SCCF:56:1,2014-01-01T02:00:00Z,26.4645,-82.1044,1.63,7.21,1111122 
SCCF RECON,ioos:station:SCCF:56:1,2014-01-01T03:00:00Z,26.4645,-82.1044,1.736,6.88,1111122 
SCCF RECON,ioos:station:SCCF:56:1,2014-01-01T04:00:00Z,26.4645,-82.1044,1.795,6.67,1111122 
SCCF RECON,ioos:station:SCCF:56:1,2014-01-01T05:00:00Z,26.4645,-82.1044,1.843,6.71,1111122 
SCCF RECON,ioos:station:SCCF:56:1,2014-01-01T06:00:00Z,26.4645,-82.1044,1.796,6.66,1111122 
SCCF RECON,ioos:station:SCCF:56:1,2014-01-01T07:00:00Z,26.4645,-82.1044,1.64,6.18,1111122 
SCCF RECON,ioos:station:SCCF:56:1,2014-01-01T08:00:00Z,26.4645,-82.1044,1.471,5.81,1111122 
SCCF RECON,ioos:station:SCCF:56:1,2014-01-01T09:00:00Z,26.4645,-82.1044,1.33,5.51,1111122 
SCCF RECON,ioos:station:SCCF:56:1,2014-01-01T10:00:00Z,26.4645,-82.1044,1.19,5.26,1111122 
SCCF RECON,ioos:station:SCCF:56:1,2014-01-01T11:00:00Z,26.4645,-82.1044,1.05,4.97,1111122 
SCCF RECON,ioos:station:SCCF:56:1,2014-01-01T12:00:00Z,26.4645,-82.1044,0.931,4.82,1111122 
SCCF RECON,ioos:station:SCCF:56:1,2014-01-01T13:00:00Z,26.4645,-82.1044,0.89,4.62,1111122 
SCCF RECON,ioos:station:SCCF:56:1,2014-01-01T14:00:00Z,26.4645,-82.1044,1.04,5.32,1111122 
SCCF RECON,ioos:station:SCCF:56:1,2014-01-01T15:00:00Z,26.4645,-82.1044,1.21,7.12,1111122 
SCCF RECON,ioos:station:SCCF:56:1,2014-01-01T16:00:00Z,26.4645,-82.1044,1.352,9.0,1111122 
SCCF RECON,ioos:station:SCCF:56:1,2014-01-01T17:00:00Z,26.4645,-82.1044,1.49,9.04,1111122 
SCCF RECON,ioos:station:SCCF:56:1,2014-01-01T18:00:00Z,26.4645,-82.1044,1.62,8.75,1111122 
SCCF RECON,ioos:station:SCCF:56:1,2014-01-01T19:00:00Z,26.4645,-82.1044,1.68,8.26,1111122 
SCCF RECON,ioos:station:SCCF:56:1,2014-01-01T20:00:00Z,26.4645,-82.1044,1.641,7.85,1111122 
SCCF RECON,ioos:station:SCCF:56:1,2014-01-01T21:00:00Z,26.4645,-82.1044,1.53,7.87,1111122 
SCCF RECON,ioos:station:SCCF:56:1,2014-01-01T22:00:00Z,26.4645,-82.1044,1.45,7.82,1111122 
SCCF RECON,ioos:station:SCCF:56:1,2014-01-01T23:00:00Z,26.4645,-82.1044,1.42,7.81,1111122 
SCCF RECON,ioos:station:SCCF:56:1,2014-01-02T00:00:00Z,26.4645,-82.1044,1.44,7.94,1111122 
SCCF RECON,ioos:station:SCCF:56:1,2014-01-02T01:00:00Z,26.4645,-82.1044,1.53,7.48,1111122 
SCCF RECON,ioos:station:SCCF:56:1,2014-01-02T02:00:00Z,26.4645,-82.1044,1.66,7.31,1111122 
SCCF RECON,ioos:station:SCCF:56:1,2014-01-02T03:00:00Z,26.4645,-82.1044,1.8,6.9,1111122 
SCCF RECON,ioos:station:SCCF:56:1,2014-01-02T04:00:00Z,26.4645,-82.1044,1.9,6.87,1111122 
SCCF RECON,ioos:station:SCCF:56:1,2014-01-02T05:00:00Z,26.4645,-82.1044,1.95,6.77,1111122 
SCCF RECON,ioos:station:SCCF:56:1,2014-01-02T06:00:00Z,26.4645,-82.1044,1.95,6.87,1111122 
SCCF RECON,ioos:station:SCCF:56:1,2014-01-02T07:00:00Z,26.4645,-82.1044,1.87,6.56,1111122 
SCCF RECON,ioos:station:SCCF:56:1,2014-01-02T08:00:00Z,26.4645,-82.1044,1.72,6.16,1111122 
SCCF RECON,ioos:station:SCCF:56:1,2014-01-02T09:00:00Z,26.4645,-82.1044,1.55,6.06,1111122 
SCCF RECON,ioos:station:SCCF:56:1,2014-01-02T10:00:00Z,26.4645,-82.1044,1.39,5.51,1111122 
SCCF RECON,ioos:station:SCCF:56:1,2014-01-02T11:00:00Z,26.4645,-82.1044,1.24,5.23,1111122 
SCCF RECON,ioos:station:SCCF:56:1,2014-01-02T12:00:00Z,26.4645,-82.1044,1.101,4.81,1111122 
SCCF RECON,ioos:station:SCCF:56:1,2014-01-02T13:00:00Z,26.4645,-82.1044,0.993,4.68,1111122 
SCCF RECON,ioos:station:SCCF:56:1,2014-01-02T14:00:00Z,26.4645,-82.1044,0.973,4.44,1111122 
SCCF RECON,ioos:station:SCCF:56:1,2014-01-02T15:00:00Z,26.4645,-82.1044,1.159,6.5,1111122 
SCCF RECON,ioos:station:SCCF:56:1,2014-01-02T16:00:00Z,26.4645,-82.1044,1.346,8.48,1111122 
SCCF RECON,ioos:station:SCCF:56:1,2014-01-02T17:00:00Z,26.4645,-82.1044,1.471,8.41,1111122 
SCCF RECON,ioos:station:SCCF:56:1,2014-01-02T18:00:00Z,26.4645,-82.1044,1.58,8.26,1111122 
SCCF RECON,ioos:station:SCCF:56:1,2014-01-02T19:00:00Z,26.4645,-82.1044,1.67,8.04,1111122 
SCCF RECON,ioos:station:SCCF:56:1,2014-01-02T20:00:00Z,26.4645,-82.1044,1.704,8.15,1111122 
SCCF RECON,ioos:station:SCCF:56:1,2014-01-02T21:00:00Z,26.4645,-82.1044,1.67,8.05,1111122 
SCCF RECON,ioos:station:SCCF:56:1,2014-01-02T22:00:00Z,26.4645,-82.1044,1.561,7.88,1111122 
SCCF RECON,ioos:station:SCCF:56:1,2014-01-02T23:00:00Z,26.4645,-82.1044,1.481,7.76,1111122 
SCCF RECON,ioos:station:SCCF:56:1,2014-01-03T00:00:00Z,26.4645,-82.1044,1.479,7.78,1111122 
SCCF RECON,ioos:station:SCCF:56:1,2014-01-03T01:00:00Z,26.4645,-82.1044,1.45,7.19,1111122 
SCCF RECON,ioos:station:SCCF:56:1,2014-01-03T02:00:00Z,26.4645,-82.1044,1.54,7.02,1111122 
SCCF RECON,ioos:station:SCCF:56:1,2014-01-03T03:00:00Z,26.4645,-82.1044,1.7,6.81,1111122 
SCCF RECON,ioos:station:SCCF:56:1,2014-01-03T04:00:00Z,26.4645,-82.1044,1.84,6.7,1111122 
SCCF RECON,ioos:station:SCCF:56:1,2014-01-03T05:00:00Z,26.4645,-82.1044,1.92,6.79,1111122 
SCCF RECON,ioos:station:SCCF:56:1,2014-01-03T06:00:00Z,26.4645,-82.1044,2.035,6.48,1111122 
SCCF RECON,ioos:station:SCCF:56:1,2014-01-03T07:00:00Z,26.4645,-82.1044,2.091,6.48,1111122 
SCCF RECON,ioos:station:SCCF:56:1,2014-01-03T08:00:00Z,26.4645,-82.1044,1.91,6.1,1111122 
SCCF RECON,ioos:station:SCCF:56:1,2014-01-03T09:00:00Z,26.4645,-82.1044,1.72,5.75,1111122 
SCCF RECON,ioos:station:SCCF:56:1,2014-01-03T10:00:00Z,26.4645,-82.1044,1.559,5.33,1111122 
SCCF RECON,ioos:station:SCCF:56:1,2014-01-03T11:00:00Z,26.4645,-82.1044,1.411,5.12,1111122 
SCCF RECON,ioos:station:SCCF:56:1,2014-01-03T12:00:00Z,26.4645,-82.1044,1.285,4.92,1111122 
SCCF RECON,ioos:station:SCCF:56:1,2014-01-03T13:00:00Z,26.4645,-82.1044,1.15,4.67,1111122 
SCCF RECON,ioos:station:SCCF:56:1,2014-01-03T14:00:00Z,26.4645,-82.1044,1.01,5.02,1111122 
SCCF RECON,ioos:station:SCCF:56:1,2014-01-03T15:00:00Z,26.4645,-82.1044,0.917,5.3,1111122 
SCCF RECON,ioos:station:SCCF:56:1,2014-01-03T16:00:00Z,26.4645,-82.1044,0.965,5.66,1111122 
SCCF RECON,ioos:station:SCCF:56:1,2014-01-03T17:00:00Z,26.4645,-82.1044,1.14,6.9,1111122 
SCCF RECON,ioos:station:SCCF:56:1,2014-01-03T18:00:00Z,26.4645,-82.1044,1.276,7.65,1111122 
SCCF RECON,ioos:station:SCCF:56:1,2014-01-03T19:00:00Z,26.4645,-82.1044,1.33,7.59,1111122 
SCCF RECON,ioos:station:SCCF:56:1,2014-01-03T20:00:00Z,26.4645,-82.1044,1.41,7.82,1111122 
SCCF RECON,ioos:station:SCCF:56:1,2014-01-03T21:00:00Z,26.4645,-82.1044,1.429,7.84,1111122 
SCCF RECON,ioos:station:SCCF:56:1,2014-01-03T22:00:00Z,26.4645,-82.1044,1.388,7.64,1111122 
SCCF RECON,ioos:station:SCCF:56:1,2014-01-03T23:00:00Z,26.4645,-82.1044,1.345,7.71,1111122 
SCCF RECON,ioos:station:SCCF:56:1,2014-01-04T00:00:00Z,26.4645,-82.1044,1.3,7.36,1111122 
SCCF RECON,ioos:station:SCCF:56:1,2014-01-04T01:00:00Z,26.4645,-82.1044,1.259,7.2,1111122 
SCCF RECON,ioos:station:SCCF:56:1,2014-01-04T02:00:00Z,26.4645,-82.1044,1.255,7.19,1111122 
SCCF RECON,ioos:station:SCCF:56:1,2014-01-04T03:00:00Z,26.4645,-82.1044,1.289,7.1,1111122 
SCCF RECON,ioos:station:SCCF:56:1,2014-01-04T04:00:00Z,26.4645,-82.1044,1.4,7.1,1111122 
SCCF RECON,ioos:station:SCCF:56:1,2014-01-04T05:00:00Z,26.4645,-82.1044,1.545,7.01,1111122 
SCCF RECON,ioos:station:SCCF:56:1,2014-01-04T06:00:00Z,26.4645,-82.1044,1.676,6.92,1111122 
SCCF RECON,ioos:station:SCCF:56:1,2014-01-04T07:00:00Z,26.4645,-82.1044,1.759,6.91,1111122 
SCCF RECON,ioos:station:SCCF:56:1,2014-01-04T08:00:00Z,26.4645,-82.1044,1.776,6.99,1111122 
SCCF RECON,ioos:station:SCCF:56:1,2014-01-04T09:00:00Z,26.4645,-82.1044,1.72,6.69,1111122 
SCCF RECON,ioos:station:SCCF:56:1,2014-01-04T10:00:00Z,26.4645,-82.1044,1.6,6.47,1111122 
SCCF RECON,ioos:station:SCCF:56:1,2014-01-04T11:00:00Z,26.4645,-82.1044,1.458,6.32,1111122 
SCCF RECON,ioos:station:SCCF:56:1,2014-01-04T12:00:00Z,26.4645,-82.1044,1.349,6.18,1111122 
SCCF RECON,ioos:station:SCCF:56:1,2014-01-04T13:00:00Z,26.4645,-82.1044,1.22,5.97,1111122 
SCCF RECON,ioos:station:SCCF:56:1,2014-01-04T14:00:00Z,26.4645,-82.1044,1.128,5.81,1111122 
SCCF RECON,ioos:station:SCCF:56:1,2014-01-04T15:00:00Z,26.4645,-82.1044,1.059,5.84,1111122 
SCCF RECON,ioos:station:SCCF:56:1,2014-01-04T16:00:00Z,26.4645,-82.1044,1.15,5.95,1111122 
SCCF RECON,ioos:station:SCCF:56:1,2014-01-04T17:00:00Z,26.4645,-82.1044,1.29,7.24,1111122 
SCCF RECON,ioos:station:SCCF:56:1,2014-01-04T18:00:00Z,26.4645,-82.1044,1.42,7.38,1111122 
SCCF RECON,ioos:station:SCCF:56:1,2014-01-04T19:00:00Z,26.4645,-82.1044,1.51,7.62,1111122 
SCCF RECON,ioos:station:SCCF:56:1,2014-01-04T20:00:00Z,26.4645,-82.1044,1.6,7.63,1111122 
SCCF RECON,ioos:station:SCCF:56:1,2014-01-04T21:00:00Z,26.4645,-82.1044,1.617,7.5,1111122 
SCCF RECON,ioos:station:SCCF:56:1,2014-01-04T22:00:00Z,26.4645,-82.1044,1.59,7.35,1111122 
SCCF RECON,ioos:station:SCCF:56:1,2014-01-04T23:00:00Z,26.4645,-82.1044,1.57,7.31,1111122 
SCCF RECON,ioos:station:SCCF:56:1,2014-01-05T00:00:00Z,26.4645,-82.1044,1.474,7.03,1111122 
SCCF RECON,ioos:station:SCCF:56:1,2014-01-05T01:00:00Z,26.4645,-82.1044,1.37,6.85,1111122 
SCCF RECON,ioos:station:SCCF:56:1,2014-01-05T02:00:00Z,26.4645,-82.1044,1.29,6.52,1111122 
SCCF RECON,ioos:station:SCCF:56:1,2014-01-05T03:00:00Z,26.4645,-82.1044,1.26,6.37,1111122 
SCCF RECON,ioos:station:SCCF:56:1,2014-01-05T04:00:00Z,26.4645,-82.1044,1.39,6.7,1111122 
SCCF RECON,ioos:station:SCCF:56:1,2014-01-05T05:00:00Z,26.4645,-82.1044,1.534,6.45,1111122 
SCCF RECON,ioos:station:SCCF:56:1,2014-01-05T06:00:00Z,26.4645,-82.1044,1.67,6.68,1111122 
SCCF RECON,ioos:station:SCCF:56:1,2014-01-05T07:00:00Z,26.4645,-82.1044,1.798,6.79,1111122 
SCCF RECON,ioos:station:SCCF:56:1,2014-01-05T08:00:00Z,26.4645,-82.1044,1.886,6.71,1111122 
SCCF RECON,ioos:station:SCCF:56:1,2014-01-05T09:00:00Z,26.4645,-82.1044,1.817,6.65,1111122 
SCCF RECON,ioos:station:SCCF:56:1,2014-01-05T10:00:00Z,26.4645,-82.1044,1.751,6.64,1111122 
SCCF RECON,ioos:station:SCCF:56:1,2014-01-05T11:00:00Z,26.4645,-82.1044,1.659,6.38,1111122 
SCCF RECON,ioos:station:SCCF:56:1,2014-01-05T12:00:00Z,26.4645,-82.1044,1.53,6.11,1111122 
SCCF RECON,ioos:station:SCCF:56:1,2014-01-05T13:00:00Z,26.4645,-82.1044,1.408,5.67,1111122 
SCCF RECON,ioos:station:SCCF:56:1,2014-01-05T14:00:00Z,26.4645,-82.1044,1.3,5.48,1111122 
SCCF RECON,ioos:station:SCCF:56:1,2014-01-05T15:00:00Z,26.4645,-82.1044,1.2,5.34,1111122 
SCCF RECON,ioos:station:SCCF:56:1,2014-01-05T16:00:00Z,26.4645,-82.1044,1.19,5.74,1111122 
SCCF RECON,ioos:station:SCCF:56:1,2014-01-05T17:00:00Z,26.4645,-82.1044,1.36,8.27,1111122 
SCCF RECON,ioos:station:SCCF:56:1,2014-01-05T18:00:00Z,26.4645,-82.1044,1.54,8.2,1111122 
SCCF RECON,ioos:station:SCCF:56:1,2014-01-05T19:00:00Z,26.4645,-82.1044,1.66,8.18,1111122 
SCCF RECON,ioos:station:SCCF:56:1,2014-01-05T20:00:00Z,26.4645,-82.1044,1.77,8.27,1111122 
SCCF RECON,ioos:station:SCCF:56:1,2014-01-05T21:00:00Z,26.4645,-82.1044,1.84,8.31,1111122 
SCCF RECON,ioos:station:SCCF:56:1,2014-01-05T22:00:00Z,26.4645,-82.1044,1.861,8.15,1111122 
SCCF RECON,ioos:station:SCCF:56:1,2014-01-05T23:00:00Z,26.4645,-82.1044,1.82,8.22,1111122 
SCCF RECON,ioos:station:SCCF:56:1,2014-01-06T00:00:00Z,26.4645,-82.1044,1.72,7.77,1111122 
SCCF RECON,ioos:station:SCCF:56:1,2014-01-06T01:00:00Z,26.4645,-82.1044,1.62,7.5,1111122 
SCCF RECON,ioos:station:SCCF:56:1,2014-01-06T02:00:00Z,26.4645,-82.1044,1.55,7.22,1111122 
SCCF RECON,ioos:station:SCCF:56:1,2014-01-06T03:00:00Z,26.4645,-82.1044,1.488,6.97,1111122 
SCCF RECON,ioos:station:SCCF:56:1,2014-01-06T04:00:00Z,26.4645,-82.1044,1.47,7.02,1111122 
SCCF RECON,ioos:station:SCCF:56:1,2014-01-06T05:00:00Z,26.4645,-82.1044,1.54,6.46,1111122 
SCCF RECON,ioos:station:SCCF:56:1,2014-01-06T06:00:00Z,26.4645,-82.1044,1.66,6.91,1111122 
SCCF RECON,ioos:station:SCCF:56:1,2014-01-06T07:00:00Z,26.4645,-82.1044,1.741,7.03,1111122 
SCCF RECON,ioos:station:SCCF:56:1,2014-01-06T08:00:00Z,26.4645,-82.1044,1.8,6.95,1111122 
SCCF RECON,ioos:station:SCCF:56:1,2014-01-06T09:00:00Z,26.4645,-82.1044,1.82,6.96,1111122 
SCCF RECON,ioos:station:SCCF:56:1,2014-01-06T10:00:00Z,26.4645,-82.1044,1.801,6.82,1111122 
SCCF RECON,ioos:station:SCCF:56:1,2014-01-06T11:00:00Z,26.4645,-82.1044,1.72,6.57,1111122 
SCCF RECON,ioos:station:SCCF:56:1,2014-01-06T12:00:00Z,26.4645,-82.1044,1.61,6.14,1111122 
SCCF RECON,ioos:station:SCCF:56:1,2014-01-06T13:00:00Z,26.4645,-82.1044,1.5,5.64,1111122 
SCCF RECON,ioos:station:SCCF:56:1,2014-01-06T14:00:00Z,26.4645,-82.1044,1.409,5.34,1111122 
SCCF RECON,ioos:station:SCCF:56:1,2014-01-06T15:00:00Z,26.4645,-82.1044,1.33,5.25,1111122 
SCCF RECON,ioos:station:SCCF:56:1,2014-01-06T16:00:00Z,26.4645,-82.1044,1.26,5.33,1111122 
SCCF RECON,ioos:station:SCCF:56:1,2014-01-06T17:00:00Z,26.4645,-82.1044,1.261,5.56,1111122 
SCCF RECON,ioos:station:SCCF:56:1,2014-01-06T18:00:00Z,26.4645,-82.1044,1.39,7.38,1111122 
SCCF RECON,ioos:station:SCCF:56:1,2014-01-06T19:00:00Z,26.4645,-82.1044,1.591,8.32,1111122 
SCCF RECON,ioos:station:SCCF:56:1,2014-01-06T20:00:00Z,26.4645,-82.1044,1.743,7.92,1111122 
SCCF RECON,ioos:station:SCCF:56:1,2014-01-06T21:00:00Z,26.4645,-82.1044,1.793,7.62,1111122 
SCCF RECON,ioos:station:SCCF:56:1,2014-01-06T22:00:00Z,26.4645,-82.1044,1.77,7.46,1111122 
SCCF RECON,ioos:station:SCCF:56:1,2014-01-06T23:00:00Z,26.4645,-82.1044,1.701,7.29,1111122 
SCCF RECON,ioos:station:SCCF:56:1,2014-01-07T00:00:00Z,26.4645,-82.1044,1.611,6.79,1111122 
SCCF RECON,ioos:station:SCCF:56:1,2014-01-07T01:00:00Z,26.4645,-82.1044,1.53,6.28,1111122 
SCCF RECON,ioos:station:SCCF:56:1,2014-01-07T02:00:00Z,26.4645,-82.1044,1.425,6.01,1111122 
SCCF RECON,ioos:station:SCCF:56:1,2014-01-07T03:00:00Z,26.4645,-82.1044,1.339,6.18,1111122 
SCCF RECON,ioos:station:SCCF:56:1,2014-01-07T04:00:00Z,26.4645,-82.1044,1.216,5.98,1111122 
SCCF RECON,ioos:station:SCCF:56:1,2014-01-07T05:00:00Z,26.4645,-82.1044,1.115,5.88,1111122 
SCCF RECON,ioos:station:SCCF:56:1,2014-01-07T06:00:00Z,26.4645,-82.1044,1.089,5.94,1111122 
SCCF RECON,ioos:station:SCCF:56:1,2014-01-07T07:00:00Z,26.4645,-82.1044,1.108,5.81,1111122 
SCCF RECON,ioos:station:SCCF:56:1,2014-01-07T08:00:00Z,26.4645,-82.1044,1.21,7.15,1111122 
SCCF RECON,ioos:station:SCCF:56:1,2014-01-07T09:00:00Z,26.4645,-82.1044,1.331,7.06,1111122 
SCCF RECON,ioos:station:SCCF:56:1,2014-01-07T10:00:00Z,26.4645,-82.1044,1.349,7.03,1111122 
SCCF RECON,ioos:station:SCCF:56:1,2014-01-07T11:00:00Z,26.4645,-82.1044,1.328,7.01,1111122 
SCCF RECON,ioos:station:SCCF:56:1,2014-01-07T12:00:00Z,26.4645,-82.1044,1.278,6.82,1111122 
SCCF RECON,ioos:station:SCCF:56:1,2014-01-07T13:00:00Z,26.4645,-82.1044,1.212,6.36,1111122 
SCCF RECON,ioos:station:SCCF:56:1,2014-01-07T14:00:00Z,26.4645,-82.1044,1.177,6.02,1111122 
SCCF RECON,ioos:station:SCCF:56:1,2014-01-07T15:00:00Z,26.4645,-82.1044,1.139,6.06,1111122 
SCCF RECON,ioos:station:SCCF:56:1,2014-01-07T16:00:00Z,26.4645,-82.1044,1.126,6.25,1111122 
SCCF RECON,ioos:station:SCCF:56:1,2014-01-07T17:00:00Z,26.4645,-82.1044,1.1,6.47,1111122 
SCCF RECON,ioos:station:SCCF:56:1,2014-01-07T18:00:00Z,26.4645,-82.1044,1.124,7.28,1111122 
SCCF RECON,ioos:station:SCCF:56:1,2014-01-07T19:00:00Z,26.4645,-82.1044,1.21,8.08,1111122 
SCCF RECON,ioos:station:SCCF:56:1,2014-01-07T20:00:00Z,26.4645,-82.1044,1.33,10.08,1111122 
SCCF RECON,ioos:station:SCCF:56:1,2014-01-07T21:00:00Z,26.4645,-82.1044,1.45,9.9,1111122 
SCCF RECON,ioos:station:SCCF:56:1,2014-01-07T22:00:00Z,26.4645,-82.1044,1.55,9.39,1111122 
SCCF RECON,ioos:station:SCCF:56:1,2014-01-07T23:00:00Z,26.4645,-82.1044,1.601,8.14,1111122 
SCCF RECON,ioos:station:SCCF:56:1,2014-01-08T00:00:00Z,26.4645,-82.1044,1.581,8.31,1111122 
SCCF RECON,ioos:station:SCCF:56:1,2014-01-08T01:00:00Z,26.4645,-82.1044,1.508,7.93,1111122 
SCCF RECON,ioos:station:SCCF:56:1,2014-01-08T02:00:00Z,26.4645,-82.1044,1.419,7.82,1111122 
SCCF RECON,ioos:station:SCCF:56:1,2014-01-08T03:00:00Z,26.4645,-82.1044,1.351,7.75,1111122 
SCCF RECON,ioos:station:SCCF:56:1,2014-01-08T04:00:00Z,26.4645,-82.1044,1.291,7.58,1111122 
SCCF RECON,ioos:station:SCCF:56:1,2014-01-08T05:00:00Z,26.4645,-82.1044,1.208,7.44,1111122 
SCCF RECON,ioos:station:SCCF:56:1,2014-01-08T06:00:00Z,26.4645,-82.1044,1.148,7.31,1111122 
SCCF RECON,ioos:station:SCCF:56:1,2014-01-08T07:00:00Z,26.4645,-82.1044,1.105,7.21,1111122 
SCCF RECON,ioos:station:SCCF:56:1,2014-01-08T08:00:00Z,26.4645,-82.1044,1.13,7.3,1111122 
SCCF RECON,ioos:station:SCCF:56:1,2014-01-08T09:00:00Z,26.4645,-82.1044,1.21,7.68,1111122 
SCCF RECON,ioos:station:SCCF:56:1,2014-01-08T10:00:00Z,26.4645,-82.1044,1.3,7.71,1111122 
SCCF RECON,ioos:station:SCCF:56:1,2014-01-08T11:00:00Z,26.4645,-82.1044,1.37,7.77,1111122 
SCCF RECON,ioos:station:SCCF:56:1,2014-01-08T12:00:00Z,26.4645,-82.1044,1.43,7.74,1111122 
SCCF RECON,ioos:station:SCCF:56:1,2014-01-08T13:00:00Z,26.4645,-82.1044,1.44,7.61,1111122 
SCCF RECON,ioos:station:SCCF:56:1,2014-01-08T14:00:00Z,26.4645,-82.1044,1.422,7.59,1111122 
SCCF RECON,ioos:station:SCCF:56:1,2014-01-08T15:00:00Z,26.4645,-82.1044,1.37,7.6,1111122 
SCCF RECON,ioos:station:SCCF:56:1,2014-01-08T16:00:00Z,26.4645,-82.1044,1.31,7.61,1111122 
SCCF RECON,ioos:station:SCCF:56:1,2014-01-08T17:00:00Z,26.4645,-82.1044,1.28,7.6,1111122 
SCCF RECON,ioos:station:SCCF:56:1,2014-01-08T18:00:00Z,26.4645,-82.1044,1.268,8.9,1111122 
SCCF RECON,ioos:station:SCCF:56:1,2014-01-08T19:00:00Z,26.4645,-82.1044,1.311,8.93,1111122 
SCCF RECON,ioos:station:SCCF:56:1,2014-01-08T20:00:00Z,26.4645,-82.1044,1.42,9.64,1111122 
SCCF RECON,ioos:station:SCCF:56:1,2014-01-08T21:00:00Z,26.4645,-82.1044,1.514,8.66,1111122 
SCCF RECON,ioos:station:SCCF:56:1,2014-01-08T22:00:00Z,26.4645,-82.1044,1.607,8.39,1111122 
SCCF RECON,ioos:station:SCCF:56:1,2014-01-08T23:00:00Z,26.4645,-82.1044,1.665,8.16,1111122 
SCCF RECON,ioos:station:SCCF:56:1,2014-01-09T00:00:00Z,26.4645,-82.1044,1.7,8.05,1111122 
SCCF RECON,ioos:station:SCCF:56:1,2014-01-09T01:00:00Z,26.4645,-82.1044,1.692,7.93,1111122 
SCCF RECON,ioos:station:SCCF:56:1,2014-01-09T02:00:00Z,26.4645,-82.1044,1.65,7.85,1111122 
SCCF RECON,ioos:station:SCCF:56:1,2014-01-09T03:00:00Z,26.4645,-82.1044,1.59,7.83,1111122 
SCCF RECON,ioos:station:SCCF:56:1,2014-01-09T04:00:00Z,26.4645,-82.1044,1.491,7.65,1111122 
SCCF RECON,ioos:station:SCCF:56:1,2014-01-09T05:00:00Z,26.4645,-82.1044,1.41,7.49,1111122 
SCCF RECON,ioos:station:SCCF:56:1,2014-01-09T06:00:00Z,26.4645,-82.1044,1.33,7.36,1111122 
SCCF RECON,ioos:station:SCCF:56:1,2014-01-09T07:00:00Z,26.4645,-82.1044,1.26,7.17,1111122 
SCCF RECON,ioos:station:SCCF:56:1,2014-01-09T08:00:00Z,26.4645,-82.1044,1.25,7.05,1111122 
SCCF RECON,ioos:station:SCCF:56:1,2014-01-09T09:00:00Z,26.4645,-82.1044,1.31,6.71,1111122 
SCCF RECON,ioos:station:SCCF:56:1,2014-01-09T10:00:00Z,26.4645,-82.1044,1.42,7.11,1111122 
SCCF RECON,ioos:station:SCCF:56:1,2014-01-09T11:00:00Z,26.4645,-82.1044,1.52,7.37,1111122 
SCCF RECON,ioos:station:SCCF:56:1,2014-01-09T12:00:00Z,26.4645,-82.1044,1.59,7.32,1111122 
SCCF RECON,ioos:station:SCCF:56:1,2014-01-09T13:00:00Z,26.4645,-82.1044,1.62,7.36,1111122 
SCCF RECON,ioos:station:SCCF:56:1,2014-01-09T14:00:00Z,26.4645,-82.1044,1.63,7.51,1111122 
SCCF RECON,ioos:station:SCCF:56:1,2014-01-09T15:00:00Z,26.4645,-82.1044,1.64,7.32,1111122 
SCCF RECON,ioos:station:SCCF:56:1,2014-01-09T16:00:00Z,26.4645,-82.1044,1.63,7.57,1111122 
SCCF RECON,ioos:station:SCCF:56:1,2014-01-09T17:00:00Z,26.4645,-82.1044,1.623,8.19,1111122 
SCCF RECON,ioos:station:SCCF:56:1,2014-01-09T18:00:00Z,26.4645,-82.1044,1.58,7.85,1111122 
SCCF RECON,ioos:station:SCCF:56:1,2014-01-09T19:00:00Z,26.4645,-82.1044,1.58,7.92,1111122 
SCCF RECON,ioos:station:SCCF:56:1,2014-01-09T20:00:00Z,26.4645,-82.1044,1.67,9.79,1111122 
SCCF RECON,ioos:station:SCCF:56:1,2014-01-09T21:00:00Z,26.4645,-82.1044,1.74,9.52,1111122 
SCCF RECON,ioos:station:SCCF:56:1,2014-01-09T22:00:00Z,26.4645,-82.1044,1.81,8.9,1111122 
SCCF RECON,ioos:station:SCCF:56:1,2014-01-09T23:00:00Z,26.4645,-82.1044,1.88,8.58,1111122 
SCCF RECON,ioos:station:SCCF:56:1,2014-01-10T00:00:00Z,26.4645,-82.1044,1.93,8.37,1111122 
SCCF RECON,ioos:station:SCCF:56:1,2014-01-10T01:00:00Z,26.4645,-82.1044,1.94,8.16,1111122 
SCCF RECON,ioos:station:SCCF:56:1,2014-01-10T02:00:00Z,26.4645,-82.1044,1.89,8.16,1111122 
SCCF RECON,ioos:station:SCCF:56:1,2014-01-10T03:00:00Z,26.4645,-82.1044,1.8,8.06,1111122 
SCCF RECON,ioos:station:SCCF:56:1,2014-01-10T04:00:00Z,26.4645,-82.1044,1.689,7.79,1111122 
SCCF RECON,ioos:station:SCCF:56:1,2014-01-10T05:00:00Z,26.4645,-82.1044,1.59,7.4,1111122 
SCCF RECON,ioos:station:SCCF:56:1,2014-01-10T06:00:00Z,26.4645,-82.1044,1.47,6.98,1111122 
SCCF RECON,ioos:station:SCCF:56:1,2014-01-10T07:00:00Z,26.4645,-82.1044,1.36,6.63,1111122 
SCCF RECON,ioos:station:SCCF:56:1,2014-01-10T08:00:00Z,26.4645,-82.1044,1.27,6.42,1111122 
SCCF RECON,ioos:station:SCCF:56:1,2014-01-10T09:00:00Z,26.4645,-82.1044,1.25,6.41,1111122 
SCCF RECON,ioos:station:SCCF:56:1,2014-01-10T10:00:00Z,26.4645,-82.1044,1.3,6.33,1111122 
SCCF RECON,ioos:station:SCCF:56:1,2014-01-10T11:00:00Z,26.4645,-82.1044,1.42,6.35,1111122 
SCCF RECON,ioos:station:SCCF:56:1,2014-01-10T12:00:00Z,26.4645,-82.1044,1.52,6.47,1111122 
SCCF RECON,ioos:station:SCCF:56:1,2014-01-10T13:00:00Z,26.4645,-82.1044,1.57,6.79,1111122 
SCCF RECON,ioos:station:SCCF:56:1,2014-01-10T14:00:00Z,26.4645,-82.1044,1.6,7.18,1111122 
SCCF RECON,ioos:station:SCCF:56:1,2014-01-10T15:00:00Z,26.4645,-82.1044,1.64,7.39,1111122 
SCCF RECON,ioos:station:SCCF:56:1,2014-01-10T16:00:00Z,26.4645,-82.1044,1.68,7.55,1111122 
SCCF RECON,ioos:station:SCCF:56:1,2014-01-10T17:00:00Z,26.4645,-82.1044,1.7,8.39,1111122 
SCCF RECON,ioos:station:SCCF:56:1,2014-01-10T18:00:00Z,26.4645,-82.1044,1.625,8.13,1111122 
SCCF RECON,ioos:station:SCCF:56:1,2014-01-10T19:00:00Z,26.4645,-82.1044,1.56,7.81,1111122 
SCCF RECON,ioos:station:SCCF:56:1,2014-01-10T20:00:00Z,26.4645,-82.1044,1.56,8.07,1111122 
SCCF RECON,ioos:station:SCCF:56:1,2014-01-10T21:00:00Z,26.4645,-82.1044,1.62,9.58,1111122 
SCCF RECON,ioos:station:SCCF:56:1,2014-01-10T22:00:00Z,26.4645,-82.1044,1.7,9.58,1111122 
SCCF RECON,ioos:station:SCCF:56:1,2014-01-10T23:00:00Z,26.4645,-82.1044,1.8,9.36,1111122 
SCCF RECON,ioos:station:SCCF:56:1,2014-01-11T00:00:00Z,26.4645,-82.1044,1.85,9.03,1111122 
SCCF RECON,ioos:station:SCCF:56:1,2014-01-11T01:00:00Z,26.4645,-82.1044,1.89,8.53,1111122 
SCCF RECON,ioos:station:SCCF:56:1,2014-01-11T02:00:00Z,26.4645,-82.1044,1.87,8.28,1111122 
SCCF RECON,ioos:station:SCCF:56:1,2014-01-11T03:00:00Z,26.4645,-82.1044,1.83,8.32,1111122 
SCCF RECON,ioos:station:SCCF:56:1,2014-01-11T04:00:00Z,26.4645,-82.1044,1.781,8.11,1111122 
SCCF RECON,ioos:station:SCCF:56:1,2014-01-11T05:00:00Z,26.4645,-82.1044,1.69,7.79,1111122 
SCCF RECON,ioos:station:SCCF:56:1,2014-01-11T06:00:00Z,26.4645,-82.1044,1.56,7.27,1111122 
SCCF RECON,ioos:station:SCCF:56:1,2014-01-11T07:00:00Z,26.4645,-82.1044,1.423,6.51,1111122 
SCCF RECON,ioos:station:SCCF:56:1,2014-01-11T08:00:00Z,26.4645,-82.1044,1.31,6.08,1111122 
SCCF RECON,ioos:station:SCCF:56:1,2014-01-11T09:00:00Z,26.4645,-82.1044,1.23,5.85,1111122 
SCCF RECON,ioos:station:SCCF:56:1,2014-01-11T10:00:00Z,26.4645,-82.1044,1.2,5.6,1111122 
SCCF RECON,ioos:station:SCCF:56:1,2014-01-11T11:00:00Z,26.4645,-82.1044,1.28,5.59,1111122 
SCCF RECON,ioos:station:SCCF:56:1,2014-01-11T12:00:00Z,26.4645,-82.1044,1.419,6.19,1111122 
SCCF RECON,ioos:station:SCCF:56:1,2014-01-11T13:00:00Z,26.4645,-82.1044,1.51,6.53,1111122 
SCCF RECON,ioos:station:SCCF:56:1,2014-01-11T14:00:00Z,26.4645,-82.1044,1.58,6.96,1111122 
SCCF RECON,ioos:station:SCCF:56:1,2014-01-11T15:00:00Z,26.4645,-82.1044,1.65,7.67,1111122 
SCCF RECON,ioos:station:SCCF:56:1,2014-01-11T16:00:00Z,26.4645,-82.1044,1.7,8.17,1111122 
SCCF RECON,ioos:station:SCCF:56:1,2014-01-11T17:00:00Z,26.4645,-82.1044,1.7,8.47,1111122 
SCCF RECON,ioos:station:SCCF:56:1,2014-01-11T18:00:00Z,26.4645,-82.1044,1.67,8.31,1111122 
SCCF RECON,ioos:station:SCCF:56:1,2014-01-11T19:00:00Z,26.4645,-82.1044,1.624,7.96,1111122 
SCCF RECON,ioos:station:SCCF:56:1,2014-01-11T20:00:00Z,26.4645,-82.1044,1.588,8.27,1111122 